Home   Weather   Euskirchen   Past weeks

Flag for Germany Past Weather in Euskirchen, North Rhine-Westphalia, Germany — Yesterday and Last 2 Weeks

Now
50 °F

Partly sunny.


Feels Like: 46 °F
Forecast: 35 / 59 °F
Wind: 10 mph from Northwest

Location: Noervenich

Current Time: Apr 23, 2017 at 4:03:50 pm

Latest Report: Apr 23, 2017 at 2:20 pm


Visibility: N/A

Pressure: 30.30 "Hg

Humidity: 47%

Dew Point: 30 °F

Location of EuskirchenLocation

Past Weather in Euskirchen — Graph

°F

Euskirchen Temperature Yesterday

Maximum temperature yesterday: 52 °F (at 12:20 am)
Minimum temperature yesterday: 41 °F (at 8:20 am)
Average temperature yesterday: 48 °F

High & Low Weather Summary for the Past Weeks

 TemperatureHumidityPressure
High72 °F (Apr 9, 4:20 pm)100% (Apr 9, 6:20 am)30.63 "Hg (Apr 9, 6:20 am)
Low27 °F (Apr 20, 5:20 am)32% (Apr 20, 6:20 pm)29.92 "Hg (Apr 12, 6:20 pm)
Average47 °F67%30.21 "Hg
* Reported Apr 8 1:20 pm — Apr 23 1:20 pm, Euskirchen, Weather by CustomWeather, © 2017

Note: Actual official high and low records may vary slightly from our data, if they occured in-between our weather recording intervals... More about our weather records

Advertising

Euskirchen Weather History for the Previous 24 Hours

Scroll right to see more
 ConditionsComfort  
Time TempWeatherWind HumidityBarometerVisibility
1:20 pm
Sun, Apr 23
48 °FPartly sunny.10 mph50%30.30 "HgN/A
12:20 pm46 °FCool.7 mph50%30.30 "HgN/A
11:20 am45 °FQuite cool.7 mph57%30.30 "HgN/A
10:20 am45 °FQuite cool.6 mph61%30.30 "HgN/A
9:20 am43 °FQuite cool.8 mph71%30.30 "HgN/A
8:20 am41 °FQuite cool.7 mph76%30.30 "HgN/A
7:20 am39 °FChilly.7 mph81%30.27 "HgN/A
6:20 am37 °FChilly.7 mph81%30.27 "HgN/A
5:20 am36 °FChilly.8 mph87%30.27 "HgN/A
4:20 am37 °FChilly.7 mph81%30.27 "HgN/A
3:20 am39 °FChilly.8 mph75%30.27 "HgN/A
2:20 am39 °FChilly.8 mph75%30.27 "HgN/A
1:20 am41 °FQuite cool.9 mph70%30.30 "HgN/A
12:20 am41 °FQuite cool.8 mph66%30.27 "HgN/A
11:20 pm
Sat, Apr 22
43 °FQuite cool.9 mph61%30.27 "HgN/A
10:20 pm45 °FQuite cool.9 mph57%30.27 "HgN/A
9:20 pm46 °FPassing clouds.12 mph53%30.27 "HgN/A
8:20 pm46 °FPartly sunny.13 mph53%30.24 "HgN/A
7:20 pm48 °FPartly sunny.10 mph54%30.24 "HgN/A
6:20 pm50 °FPartly sunny.13 mph54%30.24 "HgN/A
5:20 pm50 °FPartly sunny.12 mph54%30.24 "HgN/A
4:20 pm48 °FPartly sunny.12 mph54%30.27 "HgN/A
Weather by CustomWeather, © 2017

See weather overviewHow to use our weather pages